TimeCET,TemperatureF,Dew PointF,Humidity,Sea Level PressureIn,VisibilityMPH,Wind Direction,Wind SpeedMPH,Gust SpeedMPH,PrecipitationIn,Events,Conditions,WindDirDegrees,DateUTC
12:00 AM,53.6,51.8,94,29.62,3.1,NW,2.3,-,N/A,,Partly Cloudy,320,2013-03-24 23:00:00
12:30 AM,53.6,51.8,94,29.62,2.2,NW,3.5,-,N/A,,Partly Cloudy,320,2013-03-24 23:30:00
1:00 AM,52,51,93,29.63,2,North,4.6,,,,Mist,0,2013-03-25 00:00:00
1:00 AM,53.6,51.8,94,29.62,2.2,North,3.5,-,N/A,,Partly Cloudy,350,2013-03-25 00:00:00
1:30 AM,51.8,51.8,100,29.62,1.9,Calm,Calm,-,N/A,,Partly Cloudy,0,2013-03-25 00:30:00
2:00 AM,51.8,50.0,94,29.62,1.9,WNW,4.6,-,N/A,,Partly Cloudy,300,2013-03-25 01:00:00
2:30 AM,51.8,50.0,94,29.62,2.2,NW,5.8,-,N/A,,Partly Cloudy,310,2013-03-25 01:30:00
3:00 AM,50.0,50.0,100,29.62,3.7,NW,5.8,-,N/A,,Light Drizzle,310,2013-03-25 02:00:00
3:30 AM,50.0,48.2,94,29.62,3.7,NW,4.6,-,N/A,,Partly Cloudy,310,2013-03-25 02:30:00
4:00 AM,50.0,48.2,94,29.62,1.6,NW,5.8,-,N/A,,Partly Cloudy,320,2013-03-25 03:00:00
4:30 AM,50.0,48.2,94,29.62,0.8,NW,6.9,-,N/A,,Partly Cloudy,320,2013-03-25 03:30:00
5:00 AM,50.0,48.2,94,29.65,0.4,NW,8.1,-,N/A,Fog,Fog,310,2013-03-25 04:00:00
5:10 AM,50.0,50.0,100,29.62,1.2,NW,9.2,-,N/A,Fog,Scattered Clouds,320,2013-03-25 04:10:00
5:30 AM,50.0,50.0,100,29.65,1.6,NW,8.1,-,N/A,Fog,Partly Cloudy,320,2013-03-25 04:30:00
6:00 AM,50.0,50.0,100,29.65,1.4,NW,4.6,-,N/A,,Partly Cloudy,310,2013-03-25 05:00:00
6:30 AM,50.0,48.2,94,29.65,1.6,Calm,Calm,-,N/A,,Partly Cloudy,0,2013-03-25 05:30:00
7:00 AM,48,47,97,29.68,2,North,4.6,,,,Mist,0,2013-03-25 06:00:00
7:00 AM,50.0,48.2,94,29.65,2.5,North,8.1,-,N/A,,Partly Cloudy,350,2013-03-25 06:00:00
7:30 AM,48.2,48.2,100,29.68,5.0,NW,8.1,-,N/A,,Partly Cloudy,320,2013-03-25 06:30:00
8:00 AM,51.8,46.4,82,29.68,6.2,WNW,9.2,-,N/A,,Partly Cloudy,290,2013-03-25 07:00:00
9:00 AM,55.4,46.4,72,29.68,-9999.0,NW,10.4,-,N/A,,Clear,320,2013-03-25 08:00:00
9:30 AM,55.4,46.4,72,29.68,-9999.0,NW,5.8,-,N/A,,Clear,310,2013-03-25 08:30:00
10:00 AM,57.2,48.2,72,29.68,6.2,SSW,5.8,-,N/A,,Partly Cloudy,210,2013-03-25 09:00:00
11:00 AM,60.8,48.2,63,29.68,6.2,South,6.9,-,N/A,,Partly Cloudy,180,2013-03-25 10:00:00
11:30 AM,62.6,46.4,55,29.68,6.2,SW,5.8,-,N/A,,Partly Cloudy,220,2013-03-25 10:30:00
12:00 PM,64.4,48.2,56,29.65,6.2,SW,5.8,-,N/A,,Partly Cloudy,230,2013-03-25 11:00:00
12:30 PM,66.2,39.2,37,29.65,6.2,South,2.3,-,N/A,,Partly Cloudy,170,2013-03-25 11:30:00
1:00 PM,67,38,23,29.66,19,NW,16.1,,,,Scattered Clouds,310,2013-03-25 12:00:00
1:30 PM,68.0,39.2,35,29.65,6.2,NW,16.1,27.6,N/A,,Partly Cloudy,310,2013-03-25 12:30:00
2:00 PM,68.0,37.4,33,29.62,6.2,West,17.3,-,N/A,,Partly Cloudy,270,2013-03-25 13:00:00
2:30 PM,68.0,46.4,46,29.62,6.2,West,18.4,-,N/A,,Partly Cloudy,280,2013-03-25 13:30:00
3:00 PM,66.2,46.4,49,29.62,6.2,WSW,21.9,-,N/A,,Partly Cloudy,250,2013-03-25 14:00:00
3:30 PM,66.2,46.4,49,29.62,6.2,WSW,21.9,-,N/A,,Partly Cloudy,240,2013-03-25 14:30:00
4:00 PM,64.4,46.4,52,29.62,6.2,SW,21.9,-,N/A,,Partly Cloudy,220,2013-03-25 15:00:00
4:30 PM,62.6,48.2,59,29.62,6.2,SW,26.5,-,N/A,,Partly Cloudy,230,2013-03-25 15:30:00
5:00 PM,60.8,48.2,63,29.62,6.2,SW,31.1,-,N/A,,Partly Cloudy,230,2013-03-25 16:00:00
5:30 PM,60.8,48.2,63,29.62,6.2,WSW,31.1,-,N/A,,Partly Cloudy,240,2013-03-25 16:30:00
6:00 PM,60.8,46.4,59,29.62,6.2,WSW,29.9,-,N/A,,Partly Cloudy,240,2013-03-25 17:00:00
6:30 PM,60.8,50.0,68,29.62,6.2,WSW,26.5,-,N/A,,Partly Cloudy,240,2013-03-25 17:30:00
7:00 PM,59,50,64,29.64,11,SW,16.1,,,,Scattered Clouds,230,2013-03-25 18:00:00
7:00 PM,60.8,51.8,72,29.62,6.2,WSW,20.7,-,N/A,,Partly Cloudy,240,2013-03-25 18:00:00
7:30 PM,60.8,48.2,63,29.62,6.2,WSW,17.3,-,N/A,,Partly Cloudy,250,2013-03-25 18:30:00
8:00 PM,62.6,44.6,52,29.62,6.2,WSW,16.1,-,N/A,,Partly Cloudy,250,2013-03-25 19:00:00
8:30 PM,60.8,42.8,52,29.62,6.2,WSW,17.3,-,N/A,,Partly Cloudy,250,2013-03-25 19:30:00
9:00 PM,60.8,44.6,55,29.62,6.2,WSW,17.3,-,N/A,,Partly Cloudy,250,2013-03-25 20:00:00
9:30 PM,60.8,44.6,55,29.62,6.2,WSW,13.8,-,N/A,,Partly Cloudy,250,2013-03-25 20:30:00
10:00 PM,60.8,44.6,55,29.62,6.2,WSW,9.2,-,N/A,,Partly Cloudy,240,2013-03-25 21:00:00
10:30 PM,60.8,46.4,59,29.59,6.2,NNW,4.6,-,N/A,,Partly Cloudy,330,2013-03-25 21:30:00
11:00 PM,59.0,44.6,59,29.59,6.2,WNW,3.5,-,N/A,,Scattered Clouds,300,2013-03-25 22:00:00
11:30 PM,59.0,46.4,63,29.56,6.2,North,10.4,-,N/A,,Partly Cloudy,350,2013-03-25 22:30:00